Location: Arezzo
(43.4170°N, 11.8830°E)
Time: 02:51:08
(UTC+01:00)

STARLINK-2709 - Pass Details

Date: 01 November 2021
Orbit: 546 x 548 km, 53.1° (Epoch: 01 December)

Event Time Altitude Azimuth Distance (km) Brightness Sun altitude
Exits shadow 05:25:53 22° 313° (NW) 1,237 5.0 -15.3°
Maximum altitude 05:27:17 26° 345° (NNW) 1,096 4.9 -15.1°
Drops below altitude 10° 05:30:47 10° 43° (NE) 1,821 6.8 -14.4°
Sets 05:33:19 0° 57° (ENE) 2,716 8.0 -14.0°
